User: anonymous   Login
Location: Unspecified
(0.0000°N, 0.0000°E)
Time: 01:44:16
(UTC+00:00)
Language:

MOZHAYETS - Orbit

View from above orbital plane
View from above orbital plane
View from above satellite
View from above satellite

Ground track
Ground track

The orbit data is extracted from the following two-line orbital elements,

1 27560U 02054B   20328.76273045  .00000134  00000-0  39582-4 0  9999
2 27560  98.3812 114.1359 0041072 178.8158 181.3144 14.57873882954923
Epoch (UTC): 23 November 2020 18:18:19
Eccentricity: 0.0041072
inclination: 98.3812°
perigee height: 671 km
apogee height: 729 km
right ascension of ascending node: 114.1359°
argument of perigee: 178.8158°
revolutions per day: 14.57873882
mean anomaly at epoch: 181.3144°
orbit number at epoch: 95492

The dashed part of the orbit path shows where the satellite is in the earth's shadow,  

DLR